Station TLBO3 - 9437540 - Garibaldi, Tillamook Bay, OR Image indicating link to RSS feed of recent meteorological observations for station TLBO3


Conditions at TLBO3 as of
(9:30 pm PDT on 04/18/2024)
0430 GMT on 04/19/2024:
     

Click on the graph icon in the table below to see a time series plot of the last five days of that observation.

5-day plot - Atmospheric Pressure Atmospheric Pressure (PRES):30.10 in
5-day plot - Water Temperature Water Temperature (WTMP): 51.8 °F
NOS Water Level Observation Network Water Level
Previous observations
TIME
(PDT)
5-day plot - Wind Direction
WDIR
 
5-day plot - Wind Speed
WSPD
kts
5-day plot - Wind Gust
GST
kts
5-day plot - Wave Height
WVHT
ft
5-day plot - Dominant Wave Period
DPD
sec
5-day plot - Average Wave Period
APD
sec
5-day plot - Mean Wave Direction
MWD
 
5-day plot - Atmospheric Pressure
PRES
in
5-day plot - Pressure Tendency
PTDY
in
5-day plot - Air Temperature
ATMP
°F
5-day plot - Water Temperature
WTMP
°F
5-day plot - Dew Point
DEWP
°F
5-day plot - Salinity
SAL
psu
5-day plot - Visibility
VIS
nmi
5-day plot - Tide (above MLLW)
TIDE
ft
2024-04-18 09:24 pm-------30.10-- 52.0----
2024-04-18 09:18 pm-------30.10-- 52.0----
2024-04-18 09:12 pm-------30.10-- 52.0----
2024-04-18 09:06 pm-------30.09-- 52.0----
2024-04-18 09:00 pm-------30.09+0.00- 52.0----
2024-04-18 08:54 pm-------30.09-- 52.0----
2024-04-18 08:48 pm-------30.09-- 52.2----
2024-04-18 08:42 pm-------30.09-- 52.2----
2024-04-18 08:36 pm-------30.09-- 52.3----
2024-04-18 08:30 pm-------30.09-- 52.5----
2024-04-18 08:24 pm-------30.08-- 52.9----
2024-04-18 08:18 pm-------30.08-- 52.9----
2024-04-18 08:12 pm-------30.08-- 53.2----
2024-04-18 08:06 pm-------30.08-- 53.6----
2024-04-18 08:00 pm-------30.08-0.02- 53.8----
2024-04-18 07:54 pm-------30.08-- 54.0----
2024-04-18 07:48 pm-------30.08-- 54.1----
2024-04-18 07:42 pm-------30.08-- 54.3----
2024-04-18 07:36 pm-------30.08-- 54.5----
2024-04-18 07:30 pm-------30.08-- 54.7----
2024-04-18 07:24 pm-------30.08-- 54.9----
2024-04-18 07:18 pm-------30.08-- 54.9----
2024-04-18 07:12 pm-------30.08-- 55.0----
2024-04-18 07:06 pm-------30.08-- 55.0----
2024-04-18 07:00 pm-------30.08-0.02- 55.2----
2024-04-18 06:54 pm-------30.08-- 55.2----
2024-04-18 06:48 pm-------30.08-- 55.2----
2024-04-18 06:42 pm-------30.08-- 55.2----
2024-04-18 06:36 pm-------30.08-- 55.2----
2024-04-18 06:30 pm-------30.08-- 55.4----
2024-04-18 06:24 pm-------30.08-- 55.6----
2024-04-18 06:18 pm-------30.08-- 55.6----
2024-04-18 06:12 pm-------30.09-- 55.8----
2024-04-18 06:06 pm-------30.09-- 55.8----
2024-04-18 06:00 pm-------30.09-0.03- 56.1----
2024-04-18 05:54 pm-------30.09-- 56.1----
2024-04-18 05:48 pm-------30.09-- 56.1----
2024-04-18 05:42 pm-------30.09-- 56.1----
2024-04-18 05:36 pm-------30.09-- 56.1----
2024-04-18 05:30 pm-------30.09-- 56.1----
2024-04-18 05:24 pm-------30.09-- 56.1----
2024-04-18 05:18 pm-------30.09-- 56.1----
2024-04-18 05:12 pm-------30.09-- 56.1----
2024-04-18 05:06 pm-------30.09-- 56.1----
2024-04-18 05:00 pm-------30.10-0.04- 56.1----
2024-04-18 04:54 pm-------30.10-- 55.9----
2024-04-18 04:48 pm-------30.10-- 56.1----
2024-04-18 04:42 pm-------30.10-- 55.9----
2024-04-18 04:36 pm-------30.10-- 55.9----
2024-04-18 04:30 pm-------30.10-- 55.9----
2024-04-18 04:24 pm-------30.10-- 55.9----
2024-04-18 04:18 pm-------30.10-- 55.9----
2024-04-18 04:12 pm-------30.10-- 55.9----
2024-04-18 04:06 pm-------30.10-- 55.8----
2024-04-18 04:00 pm-------30.10-0.05- 55.8----
2024-04-18 03:54 pm-------30.11-- 55.8----
2024-04-18 03:48 pm-------30.11-- 55.8----
2024-04-18 03:42 pm-------30.11-- 55.8----
2024-04-18 03:36 pm-------30.11-- 55.8----
2024-04-18 03:30 pm-------30.11-- 55.8----
2024-04-18 03:24 pm-------30.11-- 55.6----
2024-04-18 03:18 pm-------30.11-- 55.6----
2024-04-18 03:12 pm-------30.11-- 55.6----
2024-04-18 03:06 pm-------30.11-- 55.8----
2024-04-18 03:00 pm-------30.12-0.05- 55.8----
2024-04-18 02:54 pm-------30.12-- 55.8----
2024-04-18 02:48 pm-------30.12-- 55.6----
2024-04-18 02:42 pm-------30.12-- 55.6----
2024-04-18 02:36 pm-------30.13-- 55.4----
2024-04-18 02:30 pm-------30.13-- 55.0----
2024-04-18 02:24 pm-------30.13-- 54.9----
2024-04-18 02:18 pm-------30.13-- 54.7----
2024-04-18 02:12 pm-------30.13-- 54.7----
2024-04-18 02:06 pm-------30.13-- 54.7----
2024-04-18 02:00 pm-------30.13-0.06- 54.5----
2024-04-18 01:54 pm-------30.13-- 54.3----
2024-04-18 01:48 pm-------30.14-- 54.0----
2024-04-18 01:42 pm-------30.14-- 53.6----
2024-04-18 01:36 pm-------30.14-- 51.6----
2024-04-18 01:30 pm-------30.14-- 51.6----
2024-04-18 01:24 pm-------30.15-- 51.4----
2024-04-18 01:18 pm-------30.15-- 51.8----
2024-04-18 01:12 pm-------30.15-- 52.3----
2024-04-18 01:06 pm-------30.15-- 52.2----
2024-04-18 01:00 pm-------30.15-0.05- 51.6----
2024-04-18 12:54 pm-------30.16-- 51.3----
2024-04-18 12:48 pm-------30.16-- 51.4----
2024-04-18 12:42 pm-------30.16-- 51.8----
2024-04-18 12:36 pm-------30.16-- 51.8----
2024-04-18 12:30 pm-------30.16-- 51.3----
2024-04-18 12:24 pm-------30.16-- 50.9----
2024-04-18 12:18 pm-------30.16-- 50.9----
2024-04-18 12:12 pm-------30.17-- 50.7----
2024-04-18 12:06 pm-------30.17-- 50.7----
2024-04-18 12:00 pm-------30.17-0.05- 50.7----
2024-04-18 11:54 am-------30.17-- 50.7----
2024-04-18 11:48 am-------30.18-- 50.7----
2024-04-18 11:42 am-------30.18-- 50.7----
2024-04-18 11:36 am-------30.18-- 50.5----
2024-04-18 11:30 am-------30.18-- 50.5----
2024-04-18 11:24 am-------30.18-- 50.5----
2024-04-18 11:18 am-------30.19-- 50.5----
2024-04-18 11:12 am-------30.19-- 50.5----
2024-04-18 11:06 am-------30.19-- 50.4----
2024-04-18 11:00 am-------30.19-0.04- 50.4----
2024-04-18 10:54 am-------30.19-- 50.4----
2024-04-18 10:48 am-------30.19-- 50.4----
2024-04-18 10:42 am-------30.19-- 50.2----
2024-04-18 10:36 am-------30.19-- 50.2----
2024-04-18 10:30 am-------30.19-- 50.2----
2024-04-18 10:24 am-------30.19-- 50.2----
2024-04-18 10:18 am-------30.19-- 50.2----
2024-04-18 10:12 am-------30.19-- 50.2----
2024-04-18 10:06 am-------30.20-- 50.2----
2024-04-18 10:00 am-------30.20-0.04- 50.2----
2024-04-18 09:54 am-------30.20-- 50.4----
2024-04-18 09:48 am-------30.21-- 50.4----
2024-04-18 09:42 am-------30.21-- 50.4----
2024-04-18 09:36 am-------30.21-- 50.4----
2024-04-18 09:30 am-------30.21-- 50.4----
2024-04-18 09:24 am-------30.21-- 50.4----
2024-04-18 09:18 am-------30.21-- 50.4----
2024-04-18 09:12 am-------30.21-- 50.4----
2024-04-18 09:06 am-------30.22-- 50.4----
2024-04-18 09:00 am-------30.22-0.02- 50.4----
2024-04-18 08:54 am-------30.22-- 50.4----
2024-04-18 08:48 am-------30.22-- 50.4----
2024-04-18 08:42 am-------30.22-- 50.5----
2024-04-18 08:36 am-------30.22-- 50.5----
2024-04-18 08:30 am-------30.22-- 50.5----
2024-04-18 08:24 am-------30.23-- 50.5----
2024-04-18 08:18 am-------30.23-- 50.7----
2024-04-18 08:12 am-------30.23-- 50.7----
2024-04-18 08:06 am-------30.23-- 50.9----
2024-04-18 08:00 am-------30.24+0.00- 50.9----
2024-04-18 07:54 am-------30.24-- 51.1----
2024-04-18 07:48 am-------30.24-- 51.4----
2024-04-18 07:42 am-------30.24-- 51.4----
2024-04-18 07:36 am-------30.24-- 51.4----
2024-04-18 07:30 am-------30.24-- 51.6----
2024-04-18 07:24 am-------30.24-- 51.6----
2024-04-18 07:18 am-------30.23-- 51.6----
2024-04-18 07:12 am-------30.23-- 51.6----
2024-04-18 07:06 am-------30.24-- 51.6----
2024-04-18 07:00 am-------30.24-0.01- 51.6----
2024-04-18 06:54 am-------30.24-- 51.6----
2024-04-18 06:48 am-------30.24-- 51.8----
2024-04-18 06:42 am-------30.24-- 51.8----
2024-04-18 06:36 am-------30.24-- 51.8----
2024-04-18 06:30 am-------30.24-- 51.8----
2024-04-18 06:24 am-------30.24-- 51.8----
2024-04-18 06:18 am-------30.24-- 51.8----
2024-04-18 06:12 am-------30.24-- 52.0----
2024-04-18 06:06 am-------30.24-- 52.0----
2024-04-18 06:00 am-------30.24-0.03- 52.0----
2024-04-18 05:54 am-------30.24-- 52.2----
2024-04-18 05:48 am-------30.23-- 52.2----
2024-04-18 05:42 am-------30.23-- 52.2----
2024-04-18 05:36 am-------30.24-- 52.2----
2024-04-18 05:30 am-------30.24-- 52.2----
2024-04-18 05:24 am-------30.24-- 52.3----
2024-04-18 05:18 am-------30.24-- 52.3----
2024-04-18 05:12 am-------30.23-- 52.3----
2024-04-18 05:06 am-------30.23-- 52.2----
2024-04-18 05:00 am-------30.23-0.05- 52.2----
2024-04-18 04:54 am-------30.23-- 52.2----
2024-04-18 04:48 am-------30.23-- 52.2----
2024-04-18 04:42 am-------30.24-- 52.2----
2024-04-18 04:36 am-------30.24-- 52.2----
2024-04-18 04:30 am-------30.24-- 52.0----
2024-04-18 04:24 am-------30.24-- 52.0----
2024-04-18 04:18 am-------30.24-- 52.0----
2024-04-18 04:12 am-------30.25-- 52.0----
2024-04-18 04:06 am-------30.25-- 52.0----
2024-04-18 04:00 am-------30.25-0.04- 52.0----
2024-04-18 03:54 am-------30.25-- 52.0----
2024-04-18 03:48 am-------30.26-- 52.0----
2024-04-18 03:42 am-------30.26-- 52.0----
2024-04-18 03:36 am-------30.26-- 51.8----
2024-04-18 03:30 am-------30.26-- 52.0----
2024-04-18 03:24 am-------30.26-- 51.8----
2024-04-18 03:18 am-------30.26-- 51.8----
2024-04-18 03:12 am-------30.26-- 51.8----
2024-04-18 03:06 am-------30.26-- 51.8----
2024-04-18 03:00 am-------30.27-0.04- 52.0----
2024-04-18 02:54 am-------30.27-- 52.0----
2024-04-18 02:48 am-------30.27-- 52.2----
2024-04-18 02:42 am-------30.27-- 52.2----
2024-04-18 02:36 am-------30.27-- 52.2----
2024-04-18 02:30 am-------30.27-- 51.6----
2024-04-18 02:24 am-------30.27-- 51.6----
2024-04-18 02:18 am-------30.27-- 51.6----
2024-04-18 02:12 am-------30.28-- 51.6----
2024-04-18 02:06 am-------30.28-- 51.6----
2024-04-18 02:00 am-------30.28-0.02- 51.6----
2024-04-18 01:54 am-------30.28-- 51.6----
2024-04-18 01:48 am-------30.28-- 51.6----
2024-04-18 01:42 am-------30.29-- 51.6----
2024-04-18 01:36 am-------30.29-- 51.6----
2024-04-18 01:30 am-------30.29-- 51.6----
2024-04-18 01:24 am-------30.29-- 51.6----
2024-04-18 01:18 am-------30.29-- 51.4----
2024-04-18 01:12 am-------30.29-- 51.4----
2024-04-18 01:06 am-------30.29-- 51.4----
2024-04-18 01:00 am-------30.30-0.02- 51.4----
2024-04-18 12:54 am-------30.30-- 51.4----
2024-04-18 12:48 am-------30.30-- 51.4----
2024-04-18 12:42 am-------30.30-- 51.4----
2024-04-18 12:36 am-------30.30-- 51.4----
2024-04-18 12:30 am-------30.30-- 51.3----
2024-04-18 12:24 am-------30.30-- 51.3----
2024-04-18 12:18 am-------30.30-- 51.4----
2024-04-18 12:12 am-------30.30-- 51.4----
2024-04-18 12:06 am-------30.30-- 51.4----
2024-04-18 12:00 am-------30.30-0.01- 51.4----
2024-04-17 11:54 pm-------30.30-- 51.4----
2024-04-17 11:48 pm-------30.30-- 51.4----
2024-04-17 11:42 pm-------30.30-- 51.4----
2024-04-17 11:36 pm-------30.30-- 51.4----
2024-04-17 11:30 pm-------30.30-- 51.4----
2024-04-17 11:24 pm-------30.30-- 51.4----
2024-04-17 11:18 pm-------30.30-- 51.4----
2024-04-17 11:12 pm-------30.30-- 51.4----
2024-04-17 11:06 pm-------30.30-- 51.4----
2024-04-17 11:00 pm-------30.30+0.00- 51.3----
2024-04-17 10:54 pm-------30.31-- 51.4----
2024-04-17 10:48 pm-------30.31-- 51.6----
2024-04-17 10:42 pm-------30.31-- 51.6----
2024-04-17 10:36 pm-------30.31-- 51.6----
2024-04-17 10:30 pm-------30.32-- 51.6----
2024-04-17 10:24 pm-------30.32-- 51.6----
2024-04-17 10:18 pm-------30.32-- 51.6----
2024-04-17 10:12 pm-------30.32-- 51.6----
2024-04-17 10:06 pm-------30.32-- 51.6----
2024-04-17 10:00 pm-------30.32+0.00- 51.6----
2024-04-17 09:54 pm-------30.32-- 51.6----